Вернуться в каталог

CZ-6A DEB

АктивенPO
NORAD 61103·DEBRIS·🇨🇳 China

Запущен Aug 6, 2024 с Taiyuan Satellite Launch Center

Loading…

Ближайшие Пролёты (ближайшие 24 часа)

TLE

СвежийSource: Space-Track

Эпоха: Sep 14, 2026, 22:57 UTC

1 61103U 24140NV  26257.95625845  .00000531  00000-0  16242-3 0  9995
2 61103  88.9701 259.2617 0043526 345.3516  14.6420 14.39984848107570

Отслеживайте CZ-6A DEB в реальном времени с AllMySat

Download on the App Store